TimeEST,TemperatureF,Dew PointF,Humidity,Sea Level PressureIn,VisibilityMPH,Wind Direction,Wind SpeedMPH,Gust SpeedMPH,PrecipitationIn,Events,Conditions,WindDirDegrees,DateUTC
12:15 AM,0.5,-11.0,58,30.38,10.0,West,6.9,-,N/A,,Overcast,280,2013-01-25 05:15:00
12:35 AM,0.3,-11.2,58,30.38,10.0,West,13.8,20.7,N/A,,Overcast,280,2013-01-25 05:35:00
12:55 AM,0.1,-11.2,59,30.38,10.0,WNW,8.1,17.3,N/A,,Overcast,300,2013-01-25 05:55:00
1:15 AM,-0.4,-11.7,59,30.38,10.0,WNW,10.4,19.6,N/A,,Overcast,300,2013-01-25 06:15:00
1:35 AM,-0.6,-11.7,59,30.38,-9999.0,WNW,8.1,16.1,N/A,,Overcast,290,2013-01-25 06:35:00
1:55 AM,-0.6,-11.7,59,30.38,-9999.0,WNW,8.1,-,N/A,,Overcast,290,2013-01-25 06:55:00
2:15 AM,-0.9,-11.9,60,30.39,10.0,West,6.9,-,N/A,,Overcast,280,2013-01-25 07:15:00
2:35 AM,-1.8,-12.3,61,30.39,-9999.0,West,8.1,-,N/A,,Scattered Clouds,270,2013-01-25 07:35:00
2:55 AM,-2.2,-11.9,63,30.39,-9999.0,WNW,5.8,-,N/A,,Scattered Clouds,290,2013-01-25 07:55:00
3:15 AM,-1.8,-11.4,64,30.39,-9999.0,West,4.6,-,N/A,,Mostly Cloudy,280,2013-01-25 08:15:00
3:35 AM,-1.7,-11.2,64,30.39,10.0,West,5.8,-,N/A,,Overcast,280,2013-01-25 08:35:00
3:55 AM,-1.7,-11.2,64,30.38,10.0,Calm,Calm,-,N/A,,Overcast,0,2013-01-25 08:55:00
4:15 AM,-1.7,-11.2,64,30.39,10.0,West,3.5,-,N/A,,Overcast,280,2013-01-25 09:15:00
4:35 AM,-1.8,-11.2,64,30.38,10.0,West,6.9,-,N/A,,Overcast,260,2013-01-25 09:35:00
4:55 AM,-1.8,-11.2,64,30.38,10.0,West,4.6,-,N/A,,Overcast,260,2013-01-25 09:55:00
5:15 AM,-1.8,-11.0,65,30.37,10.0,West,9.2,-,N/A,,Overcast,280,2013-01-25 10:15:00
5:35 AM,-2.4,-11.4,66,30.38,10.0,West,4.6,-,N/A,,Overcast,270,2013-01-25 10:35:00
5:55 AM,-3.1,-11.2,68,30.38,-9999.0,West,3.5,-,N/A,,Scattered Clouds,270,2013-01-25 10:55:00
6:15 AM,-3.1,-10.7,70,30.38,-9999.0,West,4.6,-,N/A,,Clear,260,2013-01-25 11:15:00
6:35 AM,-3.1,-10.7,70,30.38,-9999.0,WSW,3.5,-,N/A,,Clear,250,2013-01-25 11:35:00
6:55 AM,-3.1,-10.5,71,30.38,-9999.0,West,5.8,-,N/A,,Clear,260,2013-01-25 11:55:00
7:15 AM,-3.1,-10.7,70,30.38,-9999.0,West,4.6,-,N/A,,Clear,260,2013-01-25 12:15:00
7:35 AM,-3.1,-10.7,70,30.38,-9999.0,West,6.9,-,N/A,,Clear,260,2013-01-25 12:35:00
7:55 AM,-3.1,-11.2,68,30.38,-9999.0,West,4.6,-,N/A,,Clear,260,2013-01-25 12:55:00
8:15 AM,-2.7,-11.4,67,30.38,-9999.0,West,4.6,-,N/A,,Clear,260,2013-01-25 13:15:00
8:35 AM,-1.5,-11.2,63,30.38,-9999.0,WSW,6.9,-,N/A,,Clear,250,2013-01-25 13:35:00
8:55 AM,-0.6,-11.2,61,30.38,-9999.0,West,4.6,-,N/A,,Clear,260,2013-01-25 13:55:00
9:15 AM,-0.0,-11.2,59,30.38,-9999.0,West,5.8,-,N/A,,Clear,270,2013-01-25 14:15:00
9:35 AM,0.9,-11.2,57,30.38,-9999.0,WSW,6.9,-,N/A,,Clear,250,2013-01-25 14:35:00
9:55 AM,1.6,-11.2,55,30.38,-9999.0,WNW,6.9,-,N/A,,Clear,290,2013-01-25 14:55:00
10:15 AM,1.9,-11.4,54,30.37,-9999.0,West,5.8,-,N/A,,Clear,270,2013-01-25 15:15:00
10:35 AM,4.1,-9.6,53,30.37,-9999.0,West,4.6,-,N/A,,Clear,270,2013-01-25 15:35:00
10:55 AM,4.5,-9.6,52,30.36,10.0,SW,8.1,-,N/A,,Clear,220,2013-01-25 15:55:00
11:15 AM,4.6,-10.1,51,30.34,10.0,Calm,Calm,-,N/A,,Clear,0,2013-01-25 16:15:00
11:35 AM,6.8,-8.5,50,30.33,10.0,West,5.8,-,N/A,,Clear,270,2013-01-25 16:35:00
11:55 AM,6.8,-8.3,50,30.31,10.0,Calm,Calm,-,N/A,,Clear,0,2013-01-25 16:55:00
12:15 PM,6.8,-8.5,50,30.30,10.0,West,5.8,-,N/A,,Clear,260,2013-01-25 17:15:00
12:35 PM,6.8,-8.5,50,30.29,10.0,SSW,3.5,-,N/A,,Clear,210,2013-01-25 17:35:00
12:55 PM,8.2,-8.3,47,30.27,10.0,SSW,3.5,-,N/A,,Clear,200,2013-01-25 17:55:00
1:15 PM,9.3,-7.6,46,30.26,10.0,Calm,Calm,-,N/A,,Clear,0,2013-01-25 18:15:00
1:35 PM,9.5,-7.8,46,30.25,10.0,SSW,4.6,-,N/A,,Clear,210,2013-01-25 18:35:00
1:55 PM,8.1,-8.5,47,30.24,10.0,Calm,Calm,-,N/A,,Clear,0,2013-01-25 18:55:00
2:15 PM,9.0,-7.8,47,30.24,10.0,Calm,Calm,-,N/A,,Clear,0,2013-01-25 19:15:00
2:35 PM,9.5,-7.6,46,30.23,10.0,Calm,Calm,-,N/A,,Clear,0,2013-01-25 19:35:00
2:55 PM,8.2,-8.1,47,30.22,10.0,Calm,Calm,-,N/A,,Clear,0,2013-01-25 19:55:00
3:15 PM,8.1,-8.0,48,30.22,10.0,Calm,Calm,-,N/A,,Clear,0,2013-01-25 20:15:00
3:35 PM,7.3,-8.0,50,30.22,10.0,Calm,Calm,-,N/A,,Clear,0,2013-01-25 20:35:00
3:55 PM,8.1,-7.6,49,30.22,10.0,Calm,Calm,-,N/A,,Clear,0,2013-01-25 20:55:00
4:15 PM,7.7,-7.8,49,30.21,10.0,Calm,Calm,-,N/A,,Clear,0,2013-01-25 21:15:00
4:35 PM,7.3,-8.1,49,30.21,10.0,Calm,Calm,-,N/A,,Scattered Clouds,0,2013-01-25 21:35:00
4:55 PM,7.2,-8.0,50,30.21,10.0,Calm,Calm,-,N/A,,Mostly Cloudy,0,2013-01-25 21:55:00
5:15 PM,6.8,-6.5,55,30.20,10.0,Calm,Calm,-,N/A,,Overcast,0,2013-01-25 22:15:00
5:35 PM,6.8,-5.1,58,30.20,10.0,Calm,Calm,-,N/A,,Overcast,0,2013-01-25 22:35:00
5:55 PM,6.8,-4.7,59,30.19,10.0,Calm,Calm,-,N/A,,Overcast,0,2013-01-25 22:55:00
6:15 PM,6.8,-4.9,59,30.18,10.0,NNE,3.5,-,N/A,,Overcast,30,2013-01-25 23:15:00
6:35 PM,6.8,-4.2,61,30.18,10.0,NE,3.5,-,N/A,,Overcast,50,2013-01-25 23:35:00
6:55 PM,6.8,-4.2,61,30.17,10.0,NE,4.6,-,N/A,,Overcast,40,2013-01-25 23:55:00
7:15 PM,6.8,-4.0,61,30.17,10.0,Calm,Calm,-,N/A,,Overcast,0,2013-01-26 00:15:00
7:35 PM,6.8,-3.8,62,30.16,10.0,Calm,Calm,-,N/A,,Overcast,0,2013-01-26 00:35:00
7:55 PM,6.8,-4.0,61,30.16,10.0,NE,3.5,-,N/A,,Overcast,40,2013-01-26 00:55:00
8:15 PM,6.8,-3.8,62,30.15,10.0,Calm,Calm,-,N/A,,Overcast,0,2013-01-26 01:15:00
8:35 PM,6.8,-3.8,62,30.15,10.0,Calm,Calm,-,N/A,,Overcast,0,2013-01-26 01:35:00
8:55 PM,6.8,-3.6,62,30.15,10.0,Calm,Calm,-,N/A,,Overcast,0,2013-01-26 01:55:00
9:15 PM,6.8,-3.5,63,30.14,10.0,North,3.5,-,N/A,,Overcast,10,2013-01-26 02:15:00
9:35 PM,6.8,-3.1,64,30.14,10.0,NNE,3.5,-,N/A,,Overcast,20,2013-01-26 02:35:00
9:55 PM,6.8,-1.3,69,30.14,4.0,NNE,3.5,-,N/A,,Haze,20,2013-01-26 02:55:00
10:15 PM,6.8,-0.4,72,30.13,5.0,NNE,3.5,-,N/A,,Haze,20,2013-01-26 03:15:00
10:35 PM,6.8,-0.0,74,30.13,5.0,Calm,Calm,-,N/A,,Haze,0,2013-01-26 03:35:00
10:55 PM,6.8,0.5,75,30.13,4.0,Calm,Calm,-,N/A,,Haze,0,2013-01-26 03:55:00
11:15 PM,6.8,1.0,77,30.13,5.0,Calm,Calm,-,N/A,,Haze,0,2013-01-26 04:15:00
11:35 PM,6.8,1.0,77,30.14,5.0,Calm,Calm,-,N/A,,Haze,0,2013-01-26 04:35:00
11:55 PM,6.8,1.4,79,30.14,7.0,Calm,Calm,-,N/A,,Overcast,0,2013-01-26 04:55:00